Total_Precipitation_Accumulation
0.07 0.05 0.04 0.05 0.04 0.04 0.03 0.04 0.05 0.04 0.04 0.04 0.08 0.10 0.14 0.20 0.34 0.60 0.49 0.40 0.74 0.57 0.15 0.02 0.02 0.02 0.04 0.02 0.01 0.00 0.00 0.00 0.00 0.00 0.00 0.00 0.00 0.00 0.00 0.00 0.00 0.00 0.00 0.02 0.04 0.08 0.03 0.00 0.00 0.00 0.00 0.00 0.00 0.00
0.06 0.04 0.04 0.03 0.06 0.05 0.06 0.05 0.05 0.04 0.03 0.04 0.08 0.17 0.20 0.24 0.30 0.40 0.47 0.41 0.56 0.62 0.49 0.15 0.07 0.03 0.04 0.06 0.06 0.03 0.01 0.00 0.00 0.00 0.00 0.00 0.00 0.00 0.00 0.00 0.00 0.00 0.00 0.00 0.00 0.01 0.00 0.00 0.00 0.00 0.00 0.00 0.00 0.00
0.04 0.05 0.06 0.07 0.08 0.07 0.06 0.05 0.05 0.04 0.04 0.08 0.18 0.32 0.51 0.56 0.70 0.65 0.60 0.65 0.75 0.69 0.57 0.40 0.26 0.16 0.10 0.06 0.08 0.13 0.05 0.00 0.00 0.00 0.02 0.08 0.07 0.02 0.01 0.00 0.00 0.00 0.01 0.01 0.01 0.01 0.00 0.00 0.01 0.00 0.00 0.00 0.00 0.00
0.07 0.09 0.09 0.08 0.08 0.07 0.06 0.06 0.05 0.04 0.04 0.08 0.15 0.16 0.26 0.48 0.72 0.62 0.57 0.64 0.78 0.67 0.52 0.29 0.12 0.16 0.17 0.15 0.12 0.11 0.08 0.07 0.12 0.15 0.26 0.36 0.18 0.06 0.04 0.01 0.01 0.01 0.02 0.03 0.03 0.01 0.02 0.02 0.02 0.01 0.00 0.00 0.00 0.00
0.09 0.10 0.10 0.08 0.07 0.07 0.07 0.07 0.04 0.03 0.06 0.06 0.17 0.44 0.41 0.46 0.48 0.53 0.66 0.73 0.80 0.74 0.37 0.20 0.18 0.22 0.23 0.22 0.19 0.23 0.25 0.28 0.31 0.37 0.43 0.28 0.13 0.07 0.05 0.05 0.06 0.03 0.04 0.05 0.04 0.01 0.02 0.03 0.01 0.00 0.00 0.00 0.00 0.00
0.10 0.09 0.09 0.09 0.06 0.07 0.09 0.07 0.04 0.02 0.02 0.02 0.08 0.37 0.39 0.43 0.47 0.41 0.36 0.39 0.58 0.65 0.28 0.22 0.20 0.20 0.27 0.30 0.26 0.29 0.29 0.27 0.24 0.21 0.18 0.12 0.06 0.05 0.07 0.04 0.02 0.03 0.02 0.01 0.01 0.01 0.01 0.00 0.00 0.00 0.00 0.00 0.00 0.00
0.09 0.10 0.09 0.07 0.07 0.08 0.08 0.05 0.04 0.02 0.01 0.01 0.04 0.25 0.51 0.34 0.28 0.36 0.35 0.33 0.53 0.44 0.20 0.18 0.17 0.19 0.20 0.16 0.16 0.18 0.15 0.15 0.12 0.14 0.12 0.08 0.07 0.05 0.05 0.01 0.01 0.02 0.01 0.00 0.00 0.00 0.00 0.00 0.00 0.00 0.00 0.00 0.00 0.00
0.09 0.09 0.09 0.07 0.06 0.07 0.05 0.05 0.03 0.02 0.01 0.01 0.08 0.25 0.60 0.47 0.35 0.27 0.29 0.32 0.37 0.25 0.11 0.07 0.11 0.11 0.07 0.09 0.10 0.09 0.10 0.09 0.10 0.10 0.10 0.08 0.05 0.04 0.04 0.01 0.01 0.00 0.00 0.00 0.00 0.00 0.00 0.00 0.00 0.00 0.00 0.00 0.00 0.00
0.07 0.06 0.08 0.10 0.07 0.02 0.03 0.06 0.03 0.01 0.01 0.02 0.11 0.30 0.71 0.48 0.39 0.30 0.23 0.14 0.09 0.11 0.08 0.01 0.02 0.05 0.03 0.02 0.02 0.01 0.00 0.03 0.06 0.05 0.06 0.03 0.04 0.01 0.00 0.00 0.00 0.00 0.00 0.00 0.00 0.00 0.00 0.00 0.00 0.00 0.00 0.00 0.00 0.00
0.07 0.10 0.09 0.03 0.04 0.05 0.07 0.08 0.04 0.00 0.02 0.02 0.15 0.46 0.36 0.54 0.45 0.21 0.13 0.10 0.07 0.03 0.03 0.02 0.01 0.01 0.01 0.00 0.00 0.00 0.00 0.00 0.01 0.02 0.00 0.00 0.00 0.00 0.00 0.00 0.00 0.00 0.00 0.00 0.00 0.00 0.00 0.00 0.00 0.00 0.00 0.00 0.00 0.00
0.08 0.05 0.05 0.05 0.06 0.07 0.12 0.14 0.09 0.02 0.01 0.02 0.10 0.22 0.44 0.50 0.36 0.29 0.13 0.06 0.05 0.04 0.05 0.05 0.02 0.00 0.00 0.00 0.00 0.00 0.00 0.00 0.00 0.00 0.00 0.00 0.00 0.00 0.00 0.00 0.00 0.00 0.00 0.00 0.00 0.00 0.00 0.00 0.00 0.00 0.00 0.00 0.00 0.00
0.05 0.11 0.11 0.08 0.02 0.09 0.16 0.13 0.07 0.00 0.00 0.00 0.06 0.25 0.35 0.21 0.24 0.28 0.19 0.06 0.03 0.02 0.01 0.02 0.01 0.00 0.00 0.00 0.00 0.00 0.00 0.00 0.00 0.00 0.00 0.00 0.00 0.00 0.00 0.00 0.00 0.00 0.00 0.00 0.00 0.00 0.00 0.00 0.00 0.00 0.00 0.00 0.00 0.00
0.12 0.11 0.09 0.06 0.06 0.08 0.10 0.12 0.05 0.00 0.00 0.00 0.00 0.06 0.13 0.13 0.12 0.12 0.09 0.02 0.01 0.00 0.00 0.00 0.00 0.00 0.00 0.00 0.00 0.00 0.00 0.00 0.00 0.00 0.00 0.00 0.00 0.00 0.00 0.00 0.00 0.00 0.00 0.00 0.00 0.00 0.00 0.00 0.00 0.00 0.00 0.00 0.00 0.00
0.09 0.05 0.03 0.03 0.01 0.01 0.10 0.16 0.02 0.00 0.00 0.00 0.00 0.00 0.04 0.06 0.12 0.09 0.03 0.01 0.01 0.00 0.00 0.00 0.00 0.00 0.00 0.00 0.00 0.00 0.00 0.00 0.00 0.00 0.00 0.00 0.00 0.00 0.00 0.00 0.00 0.00 0.00 0.00 0.00 0.00 0.00 0.00 0.00 0.00 0.00 0.00 0.00 0.00
0.06 0.04 0.03 0.01 0.02 0.05 0.16 0.12 0.04 0.00 0.00 0.00 0.00 0.03 0.08 0.14 0.12 0.06 0.01 0.02 0.01 0.00 0.00 0.00 0.00 0.00 0.00 0.00 0.00 0.00 0.00 0.00 0.00 0.00 0.00 0.00 0.00 0.00 0.00 0.00 0.00 0.00 0.00 0.00 0.00 0.00 0.00 0.00 0.00 0.00 0.00 0.00 0.00 0.00
0.04 0.00 0.04 0.13 0.16 0.10 0.09 0.20 0.12 0.00 0.00 0.00 0.02 0.06 0.08 0.08 0.05 0.02 0.00 0.00 0.00 0.00 0.00 0.00 0.00 0.00 0.00 0.00 0.00 0.00 0.00 0.00 0.00 0.00 0.00 0.00 0.00 0.00 0.00 0.00 0.00 0.00 0.00 0.00 0.00 0.00 0.00 0.00 0.00 0.00 0.00 0.00 0.00 0.00
0.01 0.00 0.15 0.15 0.05 0.01 0.00 0.07 0.09 0.02 0.00 0.00 0.03 0.06 0.09 0.06 0.06 0.04 0.01 0.00 0.00 0.00 0.00 0.00 0.00 0.00 0.00 0.00 0.00 0.00 0.00 0.00 0.00 0.00 0.00 0.00 0.00 0.00 0.00 0.00 0.00 0.00 0.00 0.00 0.00 0.00 0.00 0.00 0.00 0.00 0.00 0.00 0.00 0.00
0.00 0.08 0.20 0.05 0.00 0.00 0.00 0.00 0.00 0.00 0.00 0.01 0.03 0.04 0.03 0.05 0.08 0.08 0.01 0.00 0.00 0.00 0.00 0.00 0.00 0.00 0.00 0.00 0.00 0.00 0.00 0.00 0.00 0.00 0.00 0.00 0.00 0.00 0.00 0.00 0.00 0.00 0.00 0.00 0.00 0.00 0.00 0.00 0.00 0.00 0.00 0.00 0.00 0.00
0.04 0.19 0.10 0.01 0.00 0.00 0.00 0.00 0.00 0.00 0.01 0.01 0.01 0.01 0.01 0.01 0.03 0.06 0.03 0.00 0.00 0.00 0.00 0.00 0.00 0.00 0.00 0.00 0.00 0.00 0.00 0.00 0.00 0.00 0.00 0.00 0.00 0.00 0.00 0.00 0.00 0.00 0.00 0.00 0.00 0.00 0.00 0.00 0.00 0.00 0.00 0.00 0.00 0.00
0.08 0.15 0.11 0.03 0.00 0.00 0.00 0.00 0.00 0.00 0.01 0.01 0.01 0.01 0.01 0.01 0.01 0.03 0.02 0.01 0.00 0.00 0.00 0.00 0.00 0.00 0.00 0.00 0.00 0.00 0.00 0.00 0.00 0.00 0.00 0.00 0.00 0.00 0.00 0.00 0.00 0.00 0.00 0.00 0.00 0.00 0.00 0.00 0.00 0.00 0.00 0.01 0.02 0.00
0.00 0.01 0.01 0.00 0.00 0.00 0.00 0.01 0.00 0.01 0.01 0.00 0.01 0.01 0.01 0.00 0.00 0.00 0.01 0.01 0.00 0.02 0.04 0.03 0.02 0.00 0.00 0.00 0.00 0.00 0.00 0.00 0.00 0.00 0.00 0.00 0.00 0.00 0.00 0.00 0.00 0.00 0.00 0.00 0.00 0.00 0.00 0.00 0.00 0.00 0.01 0.00 0.00 0.00
0.01 0.00 0.00 0.00 0.00 0.00 0.00 0.02 0.01 0.01 0.00 0.00 0.01 0.01 0.01 0.01 0.01 0.01 0.02 0.01 0.02 0.05 0.06 0.05 0.03 0.01 0.00 0.00 0.00 0.00 0.00 0.00 0.00 0.00 0.00 0.00 0.00 0.00 0.00 0.00 0.00 0.00 0.00 0.00 0.00 0.01 0.00 0.01 0.02 0.02 0.01 0.01 0.00 0.00
0.00 0.01 0.02 0.01 0.01 0.02 0.01 0.00 0.00 0.00 0.00 0.01 0.01 0.01 0.01 0.01 0.01 0.01 0.02 0.03 0.04 0.04 0.04 0.03 0.02 0.00 0.00 0.00 0.00 0.00 0.00 0.00 0.00 0.00 0.00 0.00 0.00 0.00 0.00 0.00 0.00 0.00 0.00 0.00 0.01 0.02 0.03 0.01 0.01 0.02 0.01 0.00 0.00 0.00
0.00 0.00 0.00 0.00 0.00 0.00 0.00 0.00 0.00 0.00 0.00 0.00 0.03 0.04 0.03 0.02 0.02 0.03 0.05 0.09 0.10 0.07 0.05 0.02 0.00 0.00 0.00 0.00 0.00 0.00 0.00 0.00 0.00 0.00 0.00 0.00 0.00 0.00 0.00 0.00 0.00 0.00 0.00 0.01 0.05 0.04 0.01 0.01 0.02 0.01 0.01 0.02 0.01 0.02
0.00 0.00 0.00 0.00 0.00 0.00 0.00 0.00 0.00 0.00 0.00 0.00 0.02 0.04 0.04 0.04 0.03 0.04 0.06 0.09 0.06 0.01 0.00 0.00 0.00 0.00 0.00 0.00 0.00 0.00 0.00 0.00 0.00 0.00 0.00 0.00 0.00 0.00 0.00 0.00 0.00 0.00 0.04 0.06 0.04 0.03 0.02 0.02 0.01 0.01 0.01 0.02 0.03 0.03
0.00 0.00 0.00 0.00 0.00 0.00 0.00 0.00 0.00 0.00 0.00 0.00 0.01 0.03 0.03 0.01 0.01 0.03 0.06 0.07 0.02 0.01 0.00 0.00 0.00 0.00 0.00 0.00 0.00 0.00 0.00 0.00 0.00 0.00 0.00 0.00 0.00 0.00 0.00 0.00 0.00 0.01 0.05 0.07 0.07 0.05 0.04 0.03 0.03 0.02 0.02 0.02 0.04 0.04
0.00 0.01 0.02 0.02 0.01 0.01 0.00 0.00 0.00 0.00 0.00 0.00 0.00 0.00 0.00 0.00 0.01 0.04 0.03 0.01 0.01 0.00 0.00 0.00 0.00 0.00 0.00 0.00 0.00 0.00 0.00 0.00 0.00 0.00 0.00 0.00 0.00 0.00 0.00 0.03 0.06 0.04 0.05 0.07 0.09 0.08 0.07 0.06 0.06 0.04 0.03 0.03 0.03 0.05
0.01 0.01 0.01 0.01 0.00 0.01 0.00 0.00 0.00 0.00 0.00 0.00 0.00 0.00 0.00 0.00 0.01 0.01 0.01 0.01 0.00 0.00 0.00 0.00 0.00 0.00 0.00 0.00 0.00 0.00 0.00 0.00 0.00 0.00 0.00 0.00 0.00 0.00 0.00 0.00 0.05 0.08 0.08 0.07 0.11 0.11 0.09 0.08 0.07 0.07 0.06 0.04 0.02 0.03
0.00 0.00 0.00 0.00 0.00 0.00 0.00 0.00 0.00 0.00 0.00 0.00 0.00 0.00 0.00 0.01 0.02 0.01 0.01 0.00 0.00 0.00 0.00 0.00 0.00 0.00 0.00 0.00 0.00 0.00 0.00 0.00 0.00 0.00 0.00 0.00 0.00 0.00 0.00 0.01 0.05 0.06 0.07 0.07 0.07 0.10 0.11 0.11 0.12 0.11 0.08 0.05 0.02 0.03
0.01 0.01 0.00 0.00 0.00 0.00 0.01 0.01 0.00 0.00 0.00 0.00 0.00 0.00 0.00 0.01 0.03 0.03 0.01 0.01 0.00 0.00 0.00 0.00 0.00 0.00 0.00 0.00 0.00 0.00 0.00 0.00 0.01 0.03 0.03 0.02 0.01 0.00 0.01 0.03 0.07 0.08 0.08 0.08 0.08 0.06 0.06 0.06 0.05 0.05 0.05 0.03 0.03 0.03
0.03 0.02 0.01 0.00 0.00 0.01 0.02 0.02 0.03 0.03 0.02 0.00 0.00 0.00 0.00 0.01 0.02 0.01 0.01 0.01 0.00 0.00 0.00 0.00 0.00 0.00 0.00 0.00 0.00 0.00 0.00 0.00 0.00 0.00 0.01 0.02 0.02 0.02 0.04 0.07 0.07 0.08 0.09 0.09 0.09 0.08 0.07 0.06 0.07 0.07 0.05 0.04 0.03 0.02
0.03 0.03 0.03 0.02 0.02 0.01 0.01 0.01 0.02 0.02 0.03 0.02 0.01 0.00 0.01 0.00 0.01 0.01 0.01 0.00 0.01 0.00 0.00 0.00 0.00 0.00 0.00 0.00 0.00 0.00 0.01 0.01 0.00 0.02 0.03 0.05 0.04 0.04 0.05 0.02 0.03 0.07 0.09 0.09 0.09 0.09 0.08 0.07 0.07 0.07 0.06 0.04 0.03 0.03
0.01 0.01 0.01 0.01 0.01 0.02 0.01 0.00 0.00 0.01 0.01 0.01 0.01 0.01 0.01 0.01 0.01 0.01 0.01 0.01 0.01 0.01 0.00 0.00 0.00 0.00 0.00 0.00 0.00 0.00 0.00 0.00 0.00 0.01 0.02 0.03 0.02 0.02 0.01 0.00 0.02 0.05 0.08 0.09 0.09 0.09 0.08 0.07 0.07 0.07 0.07 0.05 0.04 0.03